Powrót do katalogu

QIANFAN-98

AktywnyŁącznośćPO
NORAD 66040·PAYLOAD·🇨🇳 China

Wystrzelony Oct 17, 2025 z Taiyuan Satellite Launch Center

Loading…

Następne Przeloty (najbliższe 24 godziny)

TLE

ŚwieżeSource: Space-Track

Epoka: Sep 14, 2026, 20:26 UTC

1 66040U 25233H   26257.85149551  .00000078  00000-0  10225-3 0  9999
2 66040  89.0040  33.8463 0001537 109.6018 250.5300 13.51028648 45436

Śledź QIANFAN-98 w czasie rzeczywistym z AllMySat

Download on the App Store